Wind_Speed
5 3 3 4 4 5 3 6 3 2 2 1 2 2 2 2 4 4 7 12 10 12 9 8 8 9 10 12 12 13 12 11 11 11 13 14 15 14 11 8 10 13 14 14 15 14 14 14 15
4 3 6 4 5 2 5 4 6 4 1 4 2 1 2 5 6 3 13 12 9 8 8 8 8 9 10 11 10 9 9 9 9 10 11 12 13 16 18 15 11 11 14 15 15 15 15 16 16
3 5 3 4 4 5 5 5 4 2 4 1 1 3 3 3 5 4 9 12 9 9 8 8 9 9 9 8 8 8 8 9 9 10 10 11 12 13 15 17 19 13 12 15 16 15 15 16 17
5 4 4 4 5 6 6 3 4 4 4 5 3 5 5 8 3 5 8 9 9 9 9 9 8 8 8 8 8 8 8 9 9 9 10 11 12 13 14 15 16 17 14 14 16 17 15 16 17
5 2 3 1 5 5 5 4 9 4 1 3 5 4 5 7 12 7 7 7 7 8 8 8 7 7 8 8 9 9 9 8 8 8 9 11 12 14 15 15 16 18 21 17 15 17 17 16 17
3 2 3 3 5 4 4 5 7 4 5 3 4 4 6 7 12 11 8 6 6 7 8 8 7 8 8 8 9 9 9 10 10 11 12 12 13 14 16 17 17 18 20 18 16 17 17 17 17
5 4 3 3 4 5 4 7 3 4 4 7 5 4 4 8 11 11 10 9 8 9 8 8 8 9 9 8 8 9 11 12 13 13 14 14 15 15 16 17 18 18 19 17 20 19 19 19 19
2 3 2 4 3 5 2 4 2 7 7 5 9 6 4 3 12 14 13 11 11 10 10 9 9 9 8 8 9 10 12 14 15 16 16 16 16 16 16 16 18 19 19 20 19 21 22 22 19
4 3 2 4 5 4 2 2 3 4 7 7 9 13 7 4 13 15 16 15 14 13 11 10 9 8 8 9 10 12 13 16 17 17 18 17 17 17 16 16 17 18 19 20 19 19 19 19 19
4 3 7 3 4 3 2 2 4 4 5 8 16 20 16 13 15 18 17 17 14 12 11 10 10 10 10 10 12 13 15 17 18 18 19 19 18 17 16 16 15 16 18 19 18 18 16 18 18
5 6 4 3 6 4 3 4 5 3 6 18 13 11 19 20 18 19 18 16 12 9 12 11 11 11 11 12 14 15 17 18 18 19 19 20 19 17 16 16 15 16 16 16 15 20 16 15 16
2 7 6 5 2 2 3 5 6 13 16 12 8 9 11 16 20 19 19 17 14 12 11 12 11 12 12 13 15 17 18 20 20 20 20 21 19 18 16 15 14 14 13 13 14 15 15 15 16
3 3 4 9 9 8 9 11 10 26 32 25 25 22 15 14 15 16 17 17 15 14 12 12 11 11 13 14 17 18 19 20 21 21 21 21 19 17 15 14 12 12 12 12 13 15 16 17 18
2 6 12 11 8 6 3 4 4 10 6 5 8 15 20 16 15 16 20 21 19 14 13 13 11 11 13 15 17 18 20 21 21 21 19 18 18 16 14 12 10 9 12 12 13 15 16 18 24
4 6 8 4 2 4 1 6 9 21 13 14 11 9 13 19 18 19 17 18 17 15 13 13 12 12 13 15 17 18 20 21 21 20 18 17 15 14 12 9 7 9 9 12 13 14 16 18 20
4 3 5 1 3 1 1 8 5 4 10 15 11 12 12 12 16 13 16 17 16 15 13 12 11 12 14 15 16 18 19 19 19 18 16 16 14 10 7 7 5 6 9 8 15 11 14 17 21
4 4 3 8 4 1 3 8 6 8 5 17 19 19 16 15 13 14 14 15 14 13 12 11 11 12 13 14 15 17 17 17 16 16 15 14 8 4 5 3 2 5 9 8 12 13 15 15 18
4 4 4 5 1 1 4 19 17 26 21 28 26 23 21 19 13 10 14 14 14 13 12 12 11 11 12 13 14 15 15 14 13 12 10 6 4 4 4 1 3 5 7 6 8 12 13 17 24
4 1 4 4 1 2 7 13 19 18 13 17 16 10 11 18 16 13 13 15 15 13 12 11 10 11 11 12 13 13 11 11 10 7 6 5 4 3 1 1 1 4 6 7 12 11 13 18 19
1 3 6 5 1 2 5 19 17 6 5 4 4 2 2 10 14 15 16 16 14 11 11 10 9 9 10 12 12 11 9 8 6 6 4 5 6 3 6 2 2 4 2 8 8 12 9 19 21
3 5 3 5 6 1 7 9 5 2 3 3 3 2 3 7 14 17 18 17 15 12 9 9 9 8 10 11 10 9 7 5 5 5 4 3 5 6 3 2 2 4 1 8 6 10 14 10 28
2 4 2 1 3 4 4 5 5 4 8 4 7 5 4 8 13 17 18 17 13 10 10 9 8 7 10 10 9 6 5 3 2 3 4 6 7 6 4 2 2 6 2 2 2 10 12 19 35
3 2 2 2 3 3 1 2 8 4 5 5 7 11 8 9 12 15 16 14 12 11 9 9 8 8 9 8 7 5 3 2 0 2 3 4 7 6 4 2 2 5 7 5 4 1 11 17 32
6 4 6 4 3 2 1 4 7 4 5 2 2 12 12 13 14 14 14 14 12 11 10 9 8 8 8 7 4 3 1 1 1 2 3 4 5 4 3 1 1 1 5 8 4 2 18 23 27
3 4 3 4 3 5 4 2 10 5 6 4 3 12 15 15 16 16 15 14 12 11 10 9 7 7 6 5 3 0 1 1 2 0 2 4 4 2 2 1 0 3 6 8 4 12 8 8 20
5 5 5 6 3 3 3 6 6 6 3 8 10 8 15 17 17 15 13 11 10 10 11 10 6 7 5 4 3 3 2 3 3 1 2 5 4 3 2 1 1 4 6 7 9 8 10 12 15
5 4 3 6 1 3 3 7 10 5 9 5 6 9 19 20 18 15 13 11 11 11 9 9 6 7 5 4 4 5 4 3 2 1 2 3 4 5 3 1 1 2 7 9 7 7 11 13 18
2 2 3 3 1 3 4 5 6 5 4 6 6 11 17 19 19 18 16 13 12 11 10 8 7 7 4 5 5 6 5 4 2 2 2 3 4 5 4 3 1 2 7 8 8 7 8 13 17
3 1 2 1 3 5 1 6 6 5 6 6 7 12 15 19 20 20 17 14 13 12 11 9 8 7 5 5 6 7 6 3 3 3 3 2 2 3 3 4 2 4 9 6 4 8 8 10 11
1 4 5 3 5 1 3 6 1 3 5 6 7 8 11 14 17 18 18 17 16 13 11 9 9 8 5 7 8 8 7 5 4 2 2 2 3 4 4 4 4 5 11 8 11 10 15 19 20
Wind_Direction
256 240 189 136 62 68 264 260 267 243 258 203 170 182 208 215 178 214 162 167 170 182 193 206 224 243 263 272 274 275 275 276 278 273 268 262 260 250 240 253 264 260 255 253 254 252 246 242 238
227 180 147 110 98 84 263 244 226 226 210 155 166 235 286 259 231 221 168 178 172 192 210 227 245 262 273 274 271 271 274 277 280 281 277 271 264 260 259 253 250 263 262 257 252 253 249 246 241
187 160 147 96 119 183 220 220 220 203 171 162 264 241 258 227 226 216 193 197 202 206 224 243 264 272 270 272 277 280 283 287 288 287 288 285 279 272 265 257 255 250 261 262 255 251 252 244 239
155 142 67 93 225 250 208 243 198 165 206 216 242 273 249 236 235 208 186 187 206 217 230 252 260 264 276 285 287 290 292 290 290 290 289 287 284 279 274 267 258 251 256 267 260 254 256 250 239
152 119 66 325 253 260 250 263 183 187 224 194 186 256 243 235 234 216 200 203 214 223 237 254 262 280 287 291 294 299 297 296 296 296 296 294 291 287 281 272 265 253 249 249 260 256 251 251 241
101 81 67 239 251 260 262 212 178 210 228 207 219 246 255 235 223 222 213 212 222 231 250 256 270 281 286 288 294 296 296 297 297 295 295 292 288 284 282 279 274 265 260 249 244 254 254 247 243
128 97 218 232 260 295 232 173 201 213 216 235 206 173 254 233 214 210 211 217 227 239 247 260 273 280 282 285 288 291 292 293 296 296 295 295 293 289 284 279 275 273 269 260 243 247 252 247 240
150 93 180 246 227 266 199 193 224 215 251 226 207 225 240 266 207 200 207 219 228 233 243 259 270 279 282 280 284 288 290 295 297 299 301 300 298 294 288 280 272 268 265 262 254 247 250 247 240
142 61 239 248 166 254 212 236 222 240 247 223 219 238 238 237 205 209 216 221 226 233 244 259 269 272 278 283 288 289 293 297 299 301 301 300 298 295 291 284 276 268 261 257 254 247 250 247 235
117 137 225 231 212 243 280 227 288 289 257 253 243 243 246 245 231 225 230 234 236 243 253 262 262 266 271 279 287 291 296 299 300 300 300 301 301 299 294 288 278 268 261 256 247 240 242 242 233
166 202 210 251 252 268 267 278 250 242 268 249 242 274 245 241 226 229 235 236 249 252 250 258 261 264 273 282 289 294 300 304 303 303 303 303 301 297 292 286 277 267 257 252 244 236 235 239 231
214 248 240 280 274 269 253 292 275 234 253 266 277 274 248 237 234 237 234 233 235 251 257 254 258 263 273 282 289 295 301 303 304 304 303 302 300 298 294 286 273 262 247 238 233 234 233 216 220
218 267 253 265 276 261 266 260 263 273 280 275 265 264 254 241 237 238 238 235 236 248 253 256 258 265 275 281 287 294 300 304 306 305 305 303 303 302 298 289 274 255 233 221 226 230 232 204 198
283 282 280 286 265 250 232 265 349 274 295 290 278 261 248 238 238 242 235 232 238 249 253 254 261 272 277 282 287 294 303 306 304 305 306 304 302 300 296 287 270 245 231 219 234 233 224 211 204
313 324 319 241 259 230 199 285 231 266 267 279 274 276 258 244 242 245 244 243 247 252 250 255 264 276 279 283 290 300 307 307 308 307 304 303 303 298 293 283 260 272 218 222 233 238 223 211 205
356 53 348 341 146 12 67 265 271 310 252 272 274 271 265 249 244 240 233 235 235 239 244 252 267 274 280 286 295 304 306 307 307 305 303 303 305 300 288 277 286 301 252 241 226 234 223 209 198
3 256 227 316 204 110 159 275 270 265 275 279 277 270 268 254 245 233 226 226 231 235 241 253 261 273 279 290 301 308 311 310 307 305 304 304 301 313 304 301 289 283 243 249 228 230 218 204 203
221 238 242 263 274 188 257 267 275 275 271 273 282 281 272 244 237 223 223 222 221 226 233 246 265 275 284 299 309 313 311 313 317 313 320 340 351 338 314 299 259 286 253 240 236 225 213 213 201
108 204 282 276 288 279 241 277 284 293 255 272 285 292 257 234 227 220 214 211 215 218 234 249 266 278 296 311 314 317 316 321 324 353 344 360 343 318 216 128 270 336 268 250 226 228 210 198 207
234 307 278 273 284 245 335 292 276 279 248 240 302 347 208 203 201 204 202 205 208 220 233 253 268 286 308 313 320 318 324 328 329 14 354 352 345 350 124 119 349 343 275 236 241 229 193 194 211
211 200 219 239 319 236 323 293 319 275 276 258 248 251 209 195 192 195 197 201 205 216 238 251 265 294 310 319 319 323 330 332 6 40 0 36 45 90 108 94 27 9 248 217 270 195 173 194 191
249 224 212 99 37 266 14 289 295 322 301 246 233 222 209 187 186 194 194 201 207 219 237 249 270 305 314 317 320 325 335 343 17 50 54 34 70 80 68 89 2 23 19 122 154 174 197 175 169
227 41 108 88 111 1 338 105 272 351 299 262 222 214 200 184 180 184 191 199 204 225 235 253 278 308 306 314 325 329 333 26 285 71 42 42 60 70 65 74 312 12 85 108 274 124 201 190 179
143 76 39 45 73 32 234 148 283 238 216 243 218 208 196 181 175 179 185 199 217 226 236 253 277 295 301 316 318 330 325 81 269 111 98 74 59 72 87 74 6 48 94 146 197 123 181 196 185
78 76 325 351 8 215 14 83 247 267 244 221 203 206 197 189 186 188 198 207 219 232 244 253 269 282 303 307 294 257 158 155 200 170 148 134 100 86 117 101 42 40 117 121 192 118 129 159 153
179 162 165 214 207 256 36 233 251 223 276 260 243 222 204 199 198 201 202 205 213 223 244 252 260 280 300 292 257 205 166 208 213 209 222 164 162 146 200 221 134 44 148 120 157 158 148 163 172
193 187 160 101 51 46 220 282 292 247 268 271 242 210 199 200 202 198 202 203 209 221 238 253 256 274 293 271 234 207 181 220 203 174 227 158 155 176 192 188 29 52 149 146 149 159 173 157 166
160 147 78 355 190 256 288 284 241 296 323 246 249 217 200 200 205 205 206 206 213 223 231 246 247 262 276 254 220 194 180 225 217 180 209 173 176 195 204 202 191 110 152 141 125 126 137 197 198
141 244 69 148 158 177 191 258 218 280 303 270 259 243 211 205 205 208 205 207 214 226 234 239 244 249 259 240 202 185 167 205 227 221 237 208 201 217 215 219 203 148 162 150 131 123 125 129 164
9 187 168 140 250 262 144 273 220 291 341 6 322 296 255 231 223 218 219 217 223 228 234 236 239 238 243 228 188 185 175 187 226 209 252 281 211 209 225 213 197 175 149 141 140 113 129 141 145
Height
1500 1501 1502 1503 1517 1523 1527 1517 1505 1502 1501 1499 1499 1499 1500 1499 1500 1511 1498 1499 1500 1502 1503 1504 1505 1505 1506 1505 1505 1505 1504 1504 1505 1505 1506 1506 1506 1506 1506 1507 1507 1507 1508 1508 1509 1510 1511 1511 1512
1500 1501 1503 1503 1524 1533 1527 1508 1503 1500 1498 1498 1499 1499 1499 1498 1497 1497 1498 1498 1500 1502 1503 1504 1504 1504 1504 1504 1504 1503 1502 1502 1502 1503 1503 1503 1504 1504 1504 1504 1505 1505 1505 1506 1507 1507 1508 1509 1511
1500 1501 1503 1510 1529 1528 1520 1501 1498 1497 1498 1498 1499 1498 1498 1496 1495 1495 1496 1498 1499 1501 1503 1504 1504 1504 1503 1503 1502 1502 1501 1501 1500 1500 1500 1500 1501 1501 1501 1501 1502 1503 1503 1503 1504 1505 1505 1507 1508
1500 1503 1507 1515 1518 1510 1503 1494 1495 1495 1496 1497 1498 1499 1496 1493 1493 1493 1494 1495 1496 1498 1499 1500 1501 1502 1502 1502 1501 1501 1500 1499 1499 1498 1498 1498 1498 1498 1498 1498 1498 1499 1500 1501 1501 1502 1504 1504 1505
1500 1501 1514 1516 1512 1502 1497 1493 1494 1495 1495 1495 1497 1495 1493 1490 1490 1491 1492 1493 1494 1495 1497 1498 1499 1500 1499 1500 1500 1499 1499 1498 1497 1496 1496 1495 1494 1494 1494 1494 1494 1495 1496 1497 1498 1499 1499 1501 1502
1501 1503 1517 1519 1510 1499 1494 1492 1493 1494 1493 1494 1495 1494 1491 1488 1488 1490 1491 1492 1493 1495 1496 1497 1498 1498 1498 1497 1498 1498 1498 1497 1496 1495 1494 1493 1493 1492 1491 1491 1491 1491 1491 1492 1494 1495 1496 1497 1499
1499 1507 1513 1510 1507 1500 1492 1492 1493 1493 1492 1492 1491 1492 1488 1486 1486 1488 1490 1491 1492 1493 1494 1495 1496 1496 1496 1496 1496 1496 1496 1495 1494 1493 1491 1491 1490 1489 1488 1487 1487 1487 1487 1488 1490 1491 1492 1493 1496
1499 1502 1508 1508 1506 1499 1491 1491 1490 1491 1490 1489 1490 1488 1485 1485 1485 1486 1488 1489 1490 1491 1492 1493 1494 1495 1495 1495 1494 1493 1493 1493 1492 1490 1489 1487 1486 1485 1484 1483 1483 1483 1484 1484 1485 1487 1488 1489 1492
1499 1510 1514 1501 1503 1492 1490 1490 1489 1488 1488 1487 1485 1483 1483 1482 1485 1486 1486 1487 1488 1489 1490 1491 1492 1492 1493 1493 1493 1492 1491 1490 1489 1488 1486 1484 1483 1482 1480 1480 1479 1479 1480 1480 1481 1483 1484 1485 1488
1498 1511 1502 1495 1492 1490 1489 1490 1488 1487 1485 1482 1481 1481 1481 1481 1480 1483 1485 1486 1486 1487 1488 1489 1489 1490 1490 1491 1491 1490 1489 1488 1486 1485 1483 1481 1480 1478 1477 1476 1476 1475 1476 1476 1478 1479 1481 1481 1483
1497 1501 1493 1489 1490 1490 1489 1488 1487 1485 1480 1475 1475 1476 1477 1478 1479 1480 1482 1484 1485 1486 1486 1486 1487 1487 1488 1488 1488 1487 1486 1485 1484 1482 1480 1478 1477 1475 1474 1473 1472 1472 1472 1472 1474 1475 1477 1478 1481
1496 1490 1491 1488 1488 1489 1489 1487 1484 1481 1470 1472 1473 1474 1474 1474 1475 1476 1478 1479 1481 1483 1484 1484 1485 1485 1485 1485 1485 1484 1483 1482 1480 1479 1477 1475 1473 1471 1470 1469 1469 1468 1468 1470 1471 1473 1475 1476 1479
1494 1489 1489 1487 1486 1485 1486 1485 1484 1471 1468 1470 1470 1470 1471 1471 1471 1473 1476 1478 1479 1480 1482 1483 1482 1483 1483 1483 1482 1481 1480 1479 1477 1475 1473 1471 1469 1468 1467 1466 1466 1466 1466 1468 1469 1471 1473 1474 1478
1491 1489 1487 1484 1483 1482 1482 1481 1482 1465 1465 1464 1465 1465 1467 1468 1469 1470 1472 1474 1476 1478 1480 1481 1481 1481 1481 1481 1480 1478 1477 1476 1474 1473 1471 1468 1466 1465 1464 1463 1463 1463 1464 1466 1468 1469 1471 1472 1476
1490 1490 1484 1481 1482 1482 1481 1479 1475 1461 1464 1462 1462 1463 1463 1464 1466 1467 1470 1472 1475 1476 1478 1479 1479 1479 1479 1478 1477 1476 1475 1473 1471 1469 1467 1465 1463 1462 1461 1461 1461 1461 1462 1464 1466 1467 1469 1470 1473
1492 1492 1494 1482 1482 1483 1483 1479 1461 1461 1462 1459 1459 1460 1461 1461 1462 1464 1466 1469 1472 1473 1474 1476 1477 1477 1477 1476 1475 1474 1473 1471 1468 1466 1464 1463 1461 1460 1459 1460 1461 1461 1462 1463 1465 1466 1467 1469 1473
1498 1497 1495 1486 1482 1481 1483 1476 1461 1460 1460 1457 1456 1456 1458 1459 1459 1460 1463 1467 1470 1471 1472 1474 1474 1474 1474 1473 1473 1471 1469 1467 1465 1463 1462 1460 1459 1459 1460 1459 1460 1461 1460 1462 1465 1466 1466 1469 1472
1494 1496 1493 1493 1484 1483 1483 1472 1461 1457 1457 1452 1450 1450 1452 1453 1456 1459 1461 1464 1467 1470 1471 1472 1473 1473 1472 1471 1470 1468 1466 1465 1463 1462 1459 1458 1458 1458 1459 1459 1460 1459 1459 1461 1463 1465 1466 1469 1471
1487 1490 1491 1487 1484 1484 1481 1472 1458 1452 1450 1448 1446 1445 1445 1448 1452 1455 1459 1462 1465 1468 1470 1472 1471 1472 1471 1470 1468 1466 1464 1463 1462 1461 1461 1459 1458 1458 1458 1459 1459 1459 1458 1459 1462 1463 1465 1468 1470
1489 1491 1493 1486 1485 1485 1480 1463 1451 1449 1447 1445 1444 1443 1443 1445 1448 1452 1457 1460 1463 1467 1469 1470 1470 1470 1470 1468 1466 1464 1463 1462 1461 1461 1462 1460 1459 1457 1458 1459 1459 1458 1458 1459 1460 1462 1463 1468 1471
1490 1493 1488 1488 1487 1484 1485 1465 1450 1447 1445 1444 1444 1443 1443 1444 1446 1450 1454 1459 1462 1465 1467 1468 1468 1469 1468 1466 1464 1463 1463 1462 1462 1462 1462 1461 1459 1458 1459 1459 1459 1459 1458 1458 1458 1460 1463 1466 1470
1487 1487 1485 1483 1489 1494 1486 1489 1457 1449 1447 1443 1443 1443 1442 1442 1444 1448 1452 1457 1462 1464 1466 1467 1467 1466 1466 1465 1463 1462 1462 1462 1462 1463 1463 1461 1460 1459 1461 1461 1460 1459 1458 1458 1457 1459 1462 1463 1467
1485 1487 1488 1487 1491 1494 1488 1496 1456 1451 1442 1438 1439 1440 1441 1443 1444 1447 1451 1457 1460 1462 1464 1465 1465 1465 1465 1464 1463 1463 1463 1462 1463 1463 1464 1464 1462 1461 1462 1462 1460 1460 1460 1460 1459 1460 1461 1464 1467
1486 1490 1496 1499 1499 1521 1484 1491 1462 1449 1438 1434 1434 1437 1440 1441 1443 1447 1451 1455 1459 1461 1462 1462 1464 1464 1464 1463 1462 1463 1462 1462 1464 1463 1463 1463 1463 1463 1462 1462 1461 1461 1461 1462 1461 1461 1461 1465 1470
1487 1494 1522 1518 1529 1503 1495 1495 1456 1439 1436 1433 1433 1435 1438 1439 1441 1445 1448 1452 1456 1460 1462 1460 1462 1463 1462 1462 1462 1462 1462 1463 1463 1463 1463 1464 1463 1463 1464 1463 1462 1462 1462 1463 1463 1466 1467 1468 1472
1490 1490 1510 1509 1506 1496 1493 1485 1447 1435 1432 1432 1432 1433 1436 1438 1441 1444 1447 1451 1454 1457 1460 1460 1460 1460 1461 1461 1461 1461 1461 1462 1462 1463 1463 1464 1463 1464 1465 1464 1464 1463 1464 1465 1466 1467 1469 1471 1475
1489 1497 1489 1513 1540 1512 1480 1465 1440 1431 1432 1431 1431 1431 1432 1436 1440 1443 1448 1450 1453 1455 1457 1459 1459 1459 1460 1460 1460 1460 1461 1462 1462 1463 1462 1463 1463 1465 1465 1465 1465 1465 1466 1467 1468 1469 1471 1473 1478
1483 1487 1496 1509 1498 1503 1488 1475 1455 1429 1428 1431 1432 1430 1432 1435 1438 1441 1445 1448 1452 1453 1454 1456 1457 1458 1458 1458 1459 1460 1460 1462 1462 1462 1463 1462 1462 1464 1465 1466 1467 1467 1468 1469 1471 1471 1471 1474 1476
1486 1492 1488 1489 1494 1497 1505 1467 1443 1434 1432 1430 1431 1431 1431 1432 1434 1439 1443 1446 1449 1451 1453 1454 1455 1456 1457 1456 1458 1459 1460 1462 1461 1461 1462 1462 1463 1464 1465 1466 1467 1468 1469 1471 1471 1473 1474 1476 1479
1479 1475 1478 1483 1493 1506 1499 1470 1434 1433 1433 1432 1432 1433 1434 1434 1436 1438 1443 1443 1446 1449 1450 1452 1453 1454 1455 1455 1457 1458 1459 1460 1460 1461 1461 1461 1461 1462 1464 1465 1467 1467 1470 1471 1472 1474 1477 1480 1483